Regional Weather Roundup
Issued by NWS

Current Version | Previous Version | Text Only | Print | Product List | Glossary On
Versions: 1 2 3 4 5 6 7 8 9 10 11 12 13 14 15 16 17 18 19 20 21 22 23 24 25 26 27 28 29 30 31 32 33 34 35 36 37 38 39 40 41 42 43 44 45 46 47 48 49 50
000
ASUS46 KSTO 240215
RWRCA

NORTHERN AND CENTRAL CA REGIONAL WEATHER ROUNDUP
NATIONAL WEATHER SERVICE SACRAMENTO CA
700 PM PDT TUE APR 23 2019

NOTE: FAIR INDICATES FEW OR NO CLOUDS BELOW 12,000 FEET WITH NO
SIGNIFICANT WEATHER AND/OR OBSTRUCTIONS TO VISIBILITY.

CAZ001-003-240300-
NORTHWEST AREA

CITY           SKY/WX    TMP DP  RH WIND       PRES   REMARKS
CRESCENT CITY  MOSUNNY   54  50  86 N14G21    30.14S
UKIAH          SUNNY     85  51  31 MISG      29.93F
$$

CAZ006-505>513-240300-
BAY AREA

CITY           SKY/WX    TMP DP  RH WIND       PRES   REMARKS
SANTA ROSA     CLEAR     82  59  45 SE8       29.89S
SAN RAFAEL     N/A      MM  MM  MM MISG
NAPA           CLEAR     76  61  59 S7        29.90F
CONCORD        CLEAR     88  51  28 W8        29.89F
OAKLAND CITY   N/A       85  MM  MM MISG
OAKLAND        PTCLDY    79  50  36 NW7       29.91F
SAN FRAN CITY  N/A       MM  MM  MM MISG
SAN FRAN ARPT  PTCLDY    79  49  34 W9        29.90F
LIVERMORE      CLEAR     82  53  36 W7        29.90F
HAYWARD        CLEAR     81  48  31 W9        29.90F
REDWOOD CITY   N/A       84  MM  28 MISG
MOFFETT ARPT   CLEAR     80  55  42 N9        29.91S
SAN JOSE ARPT  PTCLDY    82  55  39 N13       29.90F
$$
CAZ034-037-514>518-240300-
CENTRAL COAST

CITY           SKY/WX    TMP DP  RH WIND       PRES   REMARKS
WATSONVILLE    CLEAR     60  53  77 SW6       29.94S
SALINAS        CLEAR     71  49  45 N7        29.93F
MONTEREY       CLEAR     75  47  36 CALM      29.94F
SAN LUIS OBISP CLEAR     67  49  52 NW9       29.92F
SANTA MARIA    CLEAR     67  54  63 W5        29.94F HAZE
$$
CAZ015-016-240300-
NORTHERN SACRAMENTO VALLEY

CITY           SKY/WX    TMP DP  RH WIND       PRES   REMARKS
REDDING        CLEAR     88  55  32 W3        29.89F
RED BLUFF      CLEAR     89  55  31 NW6       29.89F
OROVILLE       CLEAR     86  57  37 NW7       29.88F
$$
CAZ016>018-240300-
SOUTHERN SACRAMENTO VALLEY

CITY           SKY/WX    TMP DP  RH WIND       PRES   REMARKS
AUBURN         CLEAR     79  55  44 CALM      29.96F
BEALE AFB      CLEAR     82  66  58 S6        29.86F
LINCOLN        FAIR      81  63  54 CALM      29.87F
MARYSVILLE     CLEAR     89  52  28 N5        29.87F
SAC INTL ARPT  MOCLDY    84  55  36 SW7       29.86F
MATHER AIRPORT PTCLDY    81  61  50 SE8       29.88
DOWNTOWN SAC   N/A       84  MM  MM MISG
SAC EXEC ARPT  CLEAR     84  54  35 S3        29.87F
VACAVILLE      CLEAR     87  57  35 SW7       29.90F
TRAVIS AFB     CLEAR     83  63  50 SW9       29.89F
$$
CAZ019>021-240300-
SAN JOAQUIN VALLEY

CITY           SKY/WX    TMP DP  RH WIND       PRES   REMARKS
STOCKTON       CLEAR     84  50  30 W7        29.88F
MODESTO        CLEAR     85  44  23 N9        29.89F
MERCED         CLEAR     85  47  26 N7        29.89S
LEMOORE        PTCLDY    85  39  19 N12       29.89S
FRESNO         PTCLDY    87  42  20 NW10      29.89F
HANFORD        CLEAR     85  44  23 NW8       29.89F
PORTERVILLE    CLEAR     84  49  29 W7        29.90S
BAKERSFIELD    CLEAR     86  42  21 NW14      29.88S
$$
CAZ011-012-071-240300-
NORTHERN MOUNTAINS

CITY           SKY/WX    TMP DP  RH WIND       PRES   REMARKS
YREKA          PTCLDY    73  52  47 N13       30.09F
MOUNT SHASTA   PTCLDY    73  45  36 W6        30.10F
ALTURAS        CLEAR     70  42  36 NW9       30.13F
$$
CAZ011-012-071-240300-
SIERRA NEVADA MTNS

CITY           SKY/WX    TMP DP  RH WIND       PRES   REMARKS
BLUE CANYON    CLEAR     67  49  52 VRB5      30.17S
TRUCKEE        CLEAR     64  34  32 N8        30.19F
TAHOE VLY ARPT CLEAR     57  37  47 CALM      30.20F
MAMMOTH LAKES  FAIR      65  23  19 N8G21     30.22S
$$



USA.gov is the U.S. government's official web portal to all federal, state and local government web resources and services.